RH
76 44 33 26 27 35 49 50 63 58 58 56 46 54 63 77 69 70 88 91 84 93 97 95 94 92 90 89 89 89 88 85 85 86 87 84 83 83 83 84 86 82 78 77 77 78 79 82 83
52 30 25 31 36 42 46 55 62 64 61 58 58 61 66 76 82 82 78 78 87 88 97 97 94 93 92 92 90 88 86 85 86 85 82 82 84 83 82 79 79 82 81 78 71 74 80 84 86
44 27 22 31 38 42 43 50 62 70 57 50 70 64 64 74 81 86 75 79 79 85 95 96 95 95 94 94 93 92 91 89 86 84 83 79 81 80 76 79 79 75 69 62 64 68 73 82 88
28 20 20 24 32 32 37 63 64 58 59 58 71 84 72 80 70 81 73 80 88 91 95 97 97 95 93 92 89 90 90 88 82 82 78 73 67 66 68 73 71 66 63 62 62 65 69 79 92
23 21 22 27 30 53 62 58 52 56 60 72 70 86 90 83 86 74 79 80 87 86 90 93 92 93 90 86 86 90 89 85 83 77 72 66 65 67 66 73 70 68 65 65 61 66 73 88 91
19 19 28 41 46 63 56 54 52 66 74 75 82 86 90 80 75 83 80 82 81 88 88 90 93 94 93 90 89 89 87 81 77 76 73 68 68 71 68 71 71 68 65 62 63 70 76 86 75
20 22 29 28 61 59 58 59 65 72 74 82 75 91 89 82 82 81 87 89 91 92 94 93 90 91 92 90 86 82 81 80 80 77 76 74 76 75 71 70 65 65 68 64 66 74 80 83 77
21 20 25 29 48 64 57 58 62 65 84 69 68 93 93 93 84 89 92 93 94 96 95 94 91 89 98 97 89 86 86 81 78 69 70 73 73 72 71 69 68 70 66 64 66 72 75 76 77
23 16 18 25 59 66 57 65 72 82 87 92 84 79 84 88 85 91 94 95 95 95 96 94 91 86 90 90 88 87 79 78 74 71 70 78 79 77 74 67 67 66 66 66 66 70 74 79 79
16 17 28 18 32 63 58 61 73 87 94 91 92 91 91 83 82 90 92 93 95 98 98 94 90 87 89 78 88 85 78 84 84 85 85 79 78 73 68 68 67 66 64 64 64 65 68 73 79
39 18 16 48 49 68 68 72 83 89 94 87 89 89 92 83 80 81 85 88 96 96 94 91 85 88 91 88 92 90 96 94 88 83 82 82 78 80 78 76 77 77 66 65 62 62 64 73 80
18 17 22 56 64 68 71 73 87 88 82 72 79 84 88 90 88 88 94 98 97 96 92 88 85 94 92 90 92 96 90 90 90 85 82 83 84 82 82 82 82 80 81 72 72 68 67 69 76
18 18 18 53 56 62 59 74 87 91 82 73 78 82 86 86 94 95 94 96 94 96 94 90 84 91 93 93 96 95 94 93 82 87 84 86 86 86 80 81 78 80 78 76 69 67 66 70 73
23 22 20 66 67 70 76 82 80 89 74 84 85 90 88 91 94 95 95 98 93 90 89 86 86 92 90 94 94 95 88 91 89 89 85 84 87 83 80 80 78 77 77 76 72 68 70 75 77
22 22 20 61 68 77 66 78 90 87 82 90 91 90 87 90 91 93 90 95 96 85 84 90 90 80 80 86 89 89 85 89 92 89 84 83 82 79 76 78 78 79 76 71 72 73 76 74 63
27 24 24 24 65 78 60 72 88 89 85 90 94 90 91 92 91 91 93 96 97 86 84 82 69 89 91 91 92 87 91 94 94 91 86 81 79 75 75 73 79 79 77 74 78 80 76 75 67
27 31 28 20 60 75 68 64 89 90 88 89 92 92 93 95 94 97 96 96 97 86 83 80 91 93 93 94 95 94 93 94 91 85 84 81 77 74 74 78 79 80 78 79 73 78 78 64 61
24 31 35 28 31 75 82 76 91 90 93 88 91 93 94 96 95 95 96 97 97 92 85 92 91 94 94 97 97 98 96 93 86 84 80 78 78 74 77 78 79 78 78 76 72 74 76 80 65
33 34 31 28 21 47 68 80 92 93 92 96 93 94 92 90 94 97 97 98 98 97 94 91 94 95 93 95 97 96 97 95 85 79 75 76 77 75 75 79 79 81 79 79 74 77 72 75 78
35 35 32 26 40 56 86 89 97 98 89 93 89 92 89 87 96 96 98 99 96 94 92 94 90 93 90 92 96 96 97 96 88 79 76 76 74 75 71 77 79 78 78 76 75 71 74 76 81
33 36 32 28 42 84 87 88 97 92 95 96 89 82 82 86 95 94 97 98 95 93 91 87 86 86 88 91 97 98 94 89 80 75 75 76 75 74 75 76 80 82 81 81 81 76 70 72 76
37 28 28 28 32 36 67 58 95 96 93 97 86 83 80 85 88 90 95 96 94 86 86 82 81 83 88 94 94 88 92 90 86 75 74 78 75 76 76 77 79 83 84 82 81 75 78 75 72
31 28 29 29 35 44 75 76 55 95 97 90 90 84 82 88 89 94 90 88 82 80 82 81 78 80 80 90 89 88 92 94 90 79 74 77 78 74 73 76 78 81 84 81 78 79 79 79 79
26 28 32 46 44 54 37 61 54 96 88 75 81 87 89 88 88 86 82 82 80 78 79 83 76 74 83 88 93 90 92 94 87 78 76 78 82 78 75 74 77 80 83 79 80 82 78 80 81
32 36 52 52 52 41 30 55 34 43 68 65 69 78 84 82 82 81 81 76 78 81 79 80 74 72 78 84 90 90 91 90 81 73 73 78 83 82 77 76 79 79 80 82 80 80 79 78 78
35 35 55 53 54 46 44 50 42 38 44 63 68 69 75 84 78 75 74 73 74 76 76 75 73 68 74 81 84 89 90 87 83 74 71 72 76 78 78 75 75 74 76 81 81 81 81 80 82
38 41 33 44 53 71 50 49 46 61 64 72 73 84 82 84 79 72 68 69 72 73 74 74 70 66 69 75 81 89 88 87 86 80 72 74 79 70 77 75 74 74 73 79 82 82 80 80 82
28 30 44 59 59 54 50 56 50 57 56 75 86 91 89 82 80 70 66 68 67 67 69 72 69 66 68 74 79 82 87 86 86 83 76 75 75 70 74 75 74 75 72 78 79 78 79 80 84
40 42 42 42 60 63 57 54 51 41 43 55 82 88 87 80 80 69 64 63 63 63 64 71 73 71 72 77 79 80 86 87 89 87 80 74 71 67 70 69 72 74 72 76 78 78 78 78 80
34 38 38 67 57 77 79 50 34 52 50 61 74 82 83 74 76 71 66 64 64 62 62 66 70 70 71 74 78 82 86 88 88 84 81 75 68 66 62 65 66 72 68 74 76 76 74 76 77
Wind_Speed
4 2 4 4 6 7 2 1 3 5 3 2 4 2 6 3 1 3 4 5 6 10 7 8 10 11 13 14 15 16 16 16 18 18 16 17 17 17 17 16 15 16 16 16 16 16 15 14 13
3 2 4 3 7 5 4 1 6 2 4 7 4 4 7 4 4 10 8 6 12 9 7 7 10 13 14 14 14 13 15 16 16 16 16 17 17 17 17 16 15 15 16 18 17 15 14 14 14
3 2 4 6 4 4 5 5 6 3 4 3 4 6 4 3 4 3 7 10 11 9 7 8 11 12 15 15 14 14 13 15 14 15 16 17 17 17 17 16 16 17 18 19 18 17 16 15 13
2 4 5 7 3 2 2 6 7 6 3 7 6 7 6 6 2 6 11 11 10 10 7 8 11 12 14 15 15 17 14 14 15 15 16 17 18 18 18 16 15 17 16 18 18 18 18 16 15
5 4 6 5 3 5 3 4 5 4 4 7 3 3 4 5 12 14 10 10 11 10 9 8 11 12 14 15 14 17 14 14 16 15 15 17 18 19 18 17 16 18 18 16 17 18 17 15 16
6 4 6 4 4 4 4 4 4 4 5 5 5 4 3 8 13 9 9 8 9 9 8 9 15 16 16 15 12 15 15 15 16 16 16 16 15 18 16 17 17 17 18 17 16 17 16 17 17
8 6 3 2 3 3 2 2 5 4 4 4 5 5 5 7 8 8 9 8 9 9 9 9 10 14 15 15 14 15 16 16 15 15 14 15 15 17 17 17 17 18 18 18 18 18 17 17 17
6 6 3 2 3 3 4 3 7 5 3 3 8 7 8 9 11 9 9 8 9 8 8 9 8 8 6 7 13 14 13 13 13 14 16 15 16 17 17 15 16 18 18 17 18 18 17 17 16
3 7 2 3 5 6 7 5 3 3 6 3 5 5 13 17 13 11 9 8 7 7 7 8 8 7 6 6 8 11 14 13 12 11 15 11 5 7 11 16 18 19 19 18 18 18 15 14 16
7 5 3 1 5 6 7 9 8 5 4 3 8 14 21 18 14 12 10 9 8 8 7 6 7 6 6 5 6 6 6 5 5 5 7 6 6 7 9 13 18 19 18 18 18 16 15 11 5
1 3 2 4 2 3 7 5 3 10 3 6 12 18 18 18 15 13 10 9 7 8 6 6 7 6 6 5 4 3 3 3 4 6 6 5 5 4 4 4 5 5 12 6 9 8 6 6 5
4 1 1 3 3 6 7 6 5 1 1 11 17 17 16 16 14 12 10 9 9 8 7 6 6 6 5 4 4 4 4 3 4 5 6 4 4 5 5 4 4 5 4 6 6 4 5 6 6
2 3 3 1 5 5 6 4 4 4 7 16 19 16 16 14 11 10 10 8 8 9 7 6 6 6 5 6 4 4 4 3 5 5 5 4 4 4 3 5 5 5 4 4 5 5 5 6 6
3 2 4 5 7 4 7 4 3 5 13 16 17 13 11 13 12 9 9 7 7 9 8 6 6 6 6 5 6 4 5 3 4 4 5 6 4 4 5 4 5 5 5 4 4 4 5 5 6
3 3 3 4 6 4 9 1 3 12 14 16 13 12 11 10 11 12 10 9 8 8 9 8 8 6 6 7 6 5 5 4 4 4 5 6 6 6 6 4 4 4 4 6 5 5 5 7 7
4 5 4 2 6 4 3 7 5 13 18 15 13 11 9 10 11 8 9 7 6 10 10 9 7 7 7 7 5 5 5 5 3 2 4 6 7 6 5 6 5 4 5 4 5 4 7 7 7
7 2 1 5 8 6 4 7 7 11 16 16 14 12 11 10 7 6 7 8 8 10 10 9 8 8 8 7 5 5 6 5 3 4 4 5 6 6 6 5 4 5 5 5 4 6 4 7 7
2 2 3 4 3 4 5 9 6 12 14 18 14 13 12 13 14 9 8 7 8 8 9 9 7 8 7 5 4 4 4 4 4 3 4 5 4 6 6 5 5 5 4 5 6 7 7 5 6
2 2 6 5 6 7 8 6 12 9 11 14 15 14 14 16 9 7 7 7 7 7 9 10 10 7 7 4 4 3 4 3 4 3 4 5 5 6 6 5 5 5 5 5 4 4 7 5 4
3 5 9 8 1 4 3 4 4 7 14 14 17 15 17 14 11 9 9 9 9 10 10 9 9 10 7 4 2 3 4 2 2 2 3 5 6 6 6 6 5 5 5 6 5 5 3 3 3
4 5 7 7 3 2 4 3 7 6 4 6 12 13 13 16 16 15 14 13 10 11 10 11 10 12 8 7 5 4 4 4 2 1 1 2 6 6 6 6 5 5 5 4 4 4 5 3 3
4 7 7 6 1 5 3 7 5 8 15 11 16 16 19 16 15 13 12 14 16 13 9 10 11 12 8 9 6 8 5 5 4 3 3 3 5 5 6 6 5 5 4 5 4 3 3 4 3
9 3 5 6 5 2 1 3 7 6 13 18 19 23 23 19 19 19 18 16 14 13 12 10 11 11 10 11 9 8 5 3 3 4 6 4 4 5 5 6 5 5 4 4 5 4 5 3 3
3 4 4 3 3 4 8 7 3 7 10 14 16 18 21 22 19 19 17 17 15 11 11 11 13 13 10 12 9 11 10 7 6 5 5 4 2 3 4 5 5 5 5 4 4 4 6 4 4
4 5 5 5 1 9 7 3 9 8 13 14 21 25 25 18 18 19 20 18 15 15 15 12 14 15 13 13 12 11 10 9 11 8 7 6 4 3 5 5 4 3 4 5 4 5 5 3 3
6 10 7 6 4 4 4 6 8 10 6 7 7 11 14 19 17 21 22 19 18 18 16 15 16 15 14 14 14 11 10 8 7 8 7 7 6 5 7 6 6 6 6 5 5 3 3 4 4
4 6 7 6 3 2 6 7 8 2 6 6 8 9 18 22 19 20 19 18 17 17 19 18 17 16 15 15 11 11 11 11 10 10 9 7 6 6 8 7 7 6 6 6 5 4 5 5 4
7 5 1 3 5 9 4 5 6 4 9 8 8 11 11 15 15 16 17 17 16 15 16 16 16 18 16 14 13 12 13 13 11 10 12 11 9 9 10 8 7 7 7 7 7 5 4 6 3
1 3 3 3 6 6 10 7 8 11 11 10 11 8 11 14 16 16 16 15 15 14 15 15 15 16 15 13 13 13 12 12 11 12 12 12 11 11 11 11 8 8 8 7 6 5 6 5 5
8 10 8 6 6 6 5 12 6 10 11 9 9 9 8 11 12 13 14 13 14 15 15 17 16 16 16 14 13 14 11 11 11 11 11 11 13 12 11 10 11 7 8 6 7 7 7 7 7
Wind_Direction
301 330 123 50 59 66 19 94 102 81 121 288 104 75 123 46 56 165 140 171 144 101 106 108 113 110 98 95 97 99 97 94 94 87 82 81 78 74 66 60 63 67 70 66 63 61 59 55 47
345 110 56 77 80 67 286 147 114 108 95 94 102 68 47 55 65 122 122 164 101 108 91 109 108 107 106 101 97 96 99 95 89 87 86 82 78 75 71 70 70 68 70 69 65 61 59 55 48
175 51 76 84 105 143 174 139 121 95 70 71 101 52 64 57 109 101 146 127 112 107 93 105 110 103 96 96 93 89 82 88 81 81 81 81 77 76 76 71 68 72 76 75 69 64 63 65 64
97 17 38 73 63 51 190 152 139 127 42 70 111 70 76 346 107 129 138 113 103 99 91 89 89 93 97 96 97 90 79 83 87 85 85 85 84 78 74 72 71 70 75 69 66 65 59 64 72
37 51 54 74 341 340 63 72 99 91 63 24 30 100 57 40 107 127 121 114 107 106 98 89 90 89 87 87 89 87 85 87 87 87 87 88 87 83 76 72 67 72 77 74 66 64 64 71 81
49 89 51 45 17 7 40 57 92 76 95 147 73 85 71 109 126 115 107 100 101 100 94 90 84 80 83 87 87 85 87 86 87 81 79 81 80 81 75 72 68 71 73 71 66 63 69 84 78
100 73 135 95 101 63 133 112 114 109 95 68 141 87 116 137 121 113 95 86 77 77 78 73 70 79 82 82 72 74 77 77 81 79 79 79 73 74 74 69 72 72 69 66 66 65 73 86 81
97 89 72 59 160 152 176 89 123 98 74 97 156 164 169 153 126 109 92 85 81 78 79 77 76 77 68 75 80 82 75 78 80 81 78 67 67 70 70 60 67 69 70 65 65 70 79 82 82
104 59 105 178 151 166 163 128 29 16 95 58 334 129 126 129 127 120 114 105 101 90 89 86 89 77 61 59 73 72 83 82 76 79 73 62 44 45 53 66 68 68 66 65 62 64 74 73 77
68 77 294 199 164 165 168 145 142 118 128 91 79 103 121 136 147 138 143 138 132 117 88 90 86 85 76 67 70 75 73 66 64 65 65 51 51 65 64 59 59 60 60 61 61 59 61 58 52
98 144 261 311 186 122 134 119 89 124 236 187 162 143 138 146 153 152 156 145 130 120 111 100 100 85 79 82 73 55 70 80 64 64 60 61 70 51 45 50 35 37 49 41 48 43 39 50 64
114 149 278 164 135 112 150 115 118 118 267 140 145 148 144 153 161 158 147 136 135 125 113 95 95 99 99 93 78 87 66 64 76 57 52 61 61 58 48 52 46 54 29 49 42 45 45 53 63
85 358 359 42 123 108 98 84 120 44 115 126 142 154 154 155 140 132 132 127 133 126 116 105 109 113 108 94 93 81 72 57 99 93 71 70 69 72 63 45 53 47 43 47 54 50 48 56 65
304 328 283 150 151 116 121 147 104 164 143 137 149 150 144 146 145 133 148 145 143 129 125 125 122 125 120 105 100 96 81 63 65 83 103 92 95 83 70 62 48 50 47 40 49 56 58 59 67
306 337 311 187 176 143 118 310 212 152 157 151 154 153 148 154 156 163 160 160 152 144 136 142 137 137 115 111 107 90 78 67 56 63 84 98 92 86 87 80 65 50 47 60 50 49 53 67 73
22 46 16 221 142 186 126 245 172 169 166 162 163 160 162 171 174 164 163 155 163 138 145 150 137 127 119 112 112 109 98 84 73 69 75 78 83 87 81 73 59 45 52 55 57 49 77 72 71
5 253 269 325 181 155 188 248 179 177 176 174 175 172 173 173 178 169 170 162 163 154 148 139 133 137 128 115 106 93 99 99 93 72 65 88 90 88 90 89 77 61 54 50 61 53 68 83 73
284 334 316 265 204 165 194 256 180 183 183 186 180 179 182 182 191 179 169 163 159 153 144 139 141 133 127 112 104 94 87 91 70 77 95 93 91 88 88 79 77 77 72 55 65 77 54 62 76
6 256 262 261 251 187 219 219 192 191 192 193 192 184 190 195 176 162 158 158 149 146 147 156 150 148 143 142 133 119 124 105 82 73 103 107 99 93 89 83 77 63 77 80 69 84 76 43 23
260 292 286 290 315 186 170 217 198 200 208 201 198 195 193 186 174 178 166 170 174 164 166 162 161 157 168 159 154 133 132 102 125 128 106 113 105 97 88 96 87 87 89 71 67 80 109 84 23
229 207 252 234 339 18 134 286 195 203 222 184 209 207 202 196 187 184 179 185 171 179 177 175 170 171 169 147 117 84 80 88 105 115 118 112 110 105 113 99 102 96 91 96 97 97 111 128 38
251 211 240 260 175 247 157 272 229 196 216 207 205 209 211 199 190 185 188 190 181 188 175 174 174 173 167 159 154 165 172 160 173 154 142 120 118 128 123 109 104 104 104 99 94 97 111 117 136
233 264 239 247 214 159 225 286 269 164 225 221 206 214 213 205 186 184 189 191 194 176 178 177 177 175 172 178 171 171 168 137 131 118 130 130 130 131 117 121 125 105 102 97 107 97 86 87 118
291 325 332 51 136 222 212 202 208 194 212 227 217 214 211 204 191 186 187 192 185 184 177 177 181 186 178 183 180 180 174 162 141 144 151 172 160 132 131 131 127 126 121 127 121 98 90 100 101
151 65 319 314 234 255 219 194 249 239 235 224 206 211 209 194 187 181 181 188 182 182 185 182 191 193 188 188 189 189 184 173 173 170 166 166 159 177 176 147 147 141 140 141 125 120 121 123 113
171 160 178 253 208 260 52 246 246 237 300 256 222 221 194 200 192 185 184 185 182 182 188 187 194 199 190 190 195 193 190 183 184 174 173 179 178 171 160 163 161 153 149 152 154 131 129 127 122
240 171 203 259 250 279 220 271 308 256 278 292 268 178 195 196 195 189 182 184 182 184 189 190 195 202 196 196 192 196 194 186 187 180 178 178 158 169 165 169 164 161 158 158 154 150 145 145 153
176 169 223 354 286 262 213 231 230 215 253 254 248 219 199 191 182 188 185 185 188 185 188 191 198 201 199 195 194 199 197 192 186 178 185 180 169 166 170 168 165 166 156 159 167 165 165 155 166
295 242 224 174 164 248 277 256 210 218 226 232 235 215 201 193 183 186 188 188 184 182 186 189 197 200 201 193 195 198 196 194 183 189 188 179 173 175 172 169 176 175 165 167 166 175 167 168 169
203 216 202 183 249 218 206 254 227 223 231 216 226 204 186 204 200 188 186 179 181 187 187 192 196 201 204 199 194 202 193 186 190 195 184 172 179 179 176 172 167 172 169 174 168 172 173 177 179